Weather Roundup
Issued by NWS

Home | Current Version | Previous Version | Text Only | Print | Product List | Glossary On
Versions: 1 2 3 4 5 6 7 8 9 10 11 12 13 14 15 16 17 18 19 20 21 22 23 24 25 26 27 28 29 30 31 32 33 34 35 36 37 38 39 40 41 42 43 44 45 46 47 48 49 50
000
NZUS93 KARX 262210
HRRWXR

CURRENT HOURLY OBSERVATIONS ACROSS
MUCH OF THE UPPER MISSISSIPPI VALLEY
NATIONAL WEATHER SERVICE LA CROSSE WI
400 PM CST FRI DEC 26 2014


...SOUTHEAST MINNESOTA...


CITY           SKY/WX    TMP DP  RH WIND       PRES   REMARKS
ROCHESTER      CLOUDY    32  29  88 N14       29.97R WCI  22
ROCHESTER/MAYO CLOUDY    33  31  91 N7        29.97F WCI  27
WINONA         CLOUDY    36  32  87 N5        30.00R WCI  32
AUSTIN         CLOUDY    32  30  93 N8        29.98R FOG     WCI  25
ALBERT LEA     CLOUDY    32  30  93 N14       29.97R FOG     WCI  22
DODGE CENTER   CLOUDY    32  30  93 N14       29.97S WCI  22
PRESTON        CLOUDY    32  30  93 N10       29.94F FOG     WCI  24
OWATONNA       CLOUDY    32  28  86 N12       29.99S WCI  23
FARIBAULT      CLOUDY    32  28  86 N10       30.01S WCI  24
$$

...ELSEWHERE IN MINNESOTA...


CITY           SKY/WX    TMP DP  RH WIND       PRES   REMARKS
MINNEAPOLIS    CLOUDY    32  25  75 N10       30.04R WCI  24
INTNL FALLS    CLOUDY    22  16  78 N7        30.11R WCI  13
DULUTH         CLOUDY    29  20  69 N7        30.03S WCI  22
RED WING       CLOUDY    34  28  80 N6        30.01S WCI  29
REDWOOD FALLS  CLOUDY    29  22  75 N10       30.07R WCI  20
MANKATO        CLOUDY    30  25  80 N14       30.02R WCI  20
WORTHINGTON    CLOUDY    27 -20  12 N20       30.01F WCI  13
FAIRMONT       CLOUDY    30  25  80 N15       30.01R WCI  19
$$

...SOUTHWEST WISCONSIN...


CITY           SKY/WX    TMP DP  RH WIND       PRES   REMARKS
LA CROSSE      MOCLDY    38  32  79 NW12      29.97R WCI  30
PRAIRIE DU CHI MOCLDY    43  32  65 CALM      29.96R
BOSCOBEL       MOCLDY    45  33  63 CALM      29.95R
LONE ROCK      MOCLDY    46  34  62 S5        29.95R
PLATTEVILLE    MOCLDY    42  37  82 SW3       29.96R
FORT MC COY    CLOUDY    41  32  70 N6        29.96S
CAMP DOUGLAS   MOCLDY    40  39  94 N2        29.95R
VIROQUA        FAIR      38  35  87 N3        29.95R
WIS DELLS      MOCLDY    43  33  66 CALM      29.94S
$$

...ELSEWHERE IN WISCONSIN...


CITY           SKY/WX    TMP DP  RH WIND       PRES   REMARKS
MILWAUKEE      MOCLDY    47  35  63 SW5       29.99R
MADISON        MOCLDY    43  35  73 S9        29.95S
GREEN BAY      CLOUDY    37  34  89 N7        29.99R WCI  32
EAU CLAIRE     CLOUDY    34  28  79 N7        30.00R WCI  28
BLACK RVR FLS  CLOUDY    38  32  78 N6        29.97R WCI  34
MEDFORD        CLOUDY    32  30  92 NE7       29.97R FOG     WCI  26
WAUSAU         CLOUDY    34  31  88 N3        29.96R
WIS RAPIDS     PTCLDY    37  30  75 NE8       29.98R WCI  31
MARSHFIELD     CLOUDY    35  30  82 NE6       29.97R WCI  30
RICE LAKE      CLOUDY    32  28  84 N7        30.03R WCI  26
$$

...NORTHEAST IOWA...


CITY           SKY/WX    TMP DP  RH WIND       PRES   REMARKS
DECORAH        CLOUDY    37  34  87 N6        29.94R WCI  33
MASON CITY     CLOUDY    32  30  92 N13       29.97S FOG     WCI  22
CHARLES CITY   CLOUDY    34  34 100 N12       29.96S FOG     WCI  25
OELWEIN        CLOUDY    39  36  87 N5        29.94S
$$

...ELSEWHERE IN IOWA...


CITY           SKY/WX    TMP DP  RH WIND       PRES   REMARKS
DES MOINES     CLOUDY    35  31  85 N5        29.98R FOG     WCI  31
IOWA CITY      CLOUDY    47  36  65 CALM      29.96R
FORT DODGE     CLOUDY    32  28  86 N12       29.99R WCI  23
$$

...NORTHERN ILLINOIS...


CITY           SKY/WX    TMP DP  RH WIND       PRES   REMARKS
CHICAGO-OHARE  MOCLDY    47  38  71 S12       29.99R
CHICAGO-MIDWAY MOCLDY    50  39  66 S7        30.01R
MOLINE         PTCLDY    51  37  58 S7        29.95S
ROCKFORD       MOCLDY    49  37  63 SW7       29.99S
PEORIA         PTCLDY    52  41  66 S5        29.99S
$$

NOTE: "FAIR" INDICATES FEW OR NO CLOUDS BELOW 12,000 FEET WITH NO
SIGNIFICANT WEATHER AND/OR OBSTRUCTIONS TO VISIBILITY. WIND
SPEEDS ARE IN MILES-PER-HOUR.



USA.gov is the U.S. government's official web portal to all federal, state and local government web resources and services.